When you browse on this site, cookies collect data to enhance your experience and personalize the content and advertising you see.
Visit our Privacy Policy to learn more. By continuing to use the site, you agree to this use of cookies and data.
  • In Austria
  • List of Countries
  • For 7 days
  • Water Temperature
  • Weather Map
  • News
  • Weather Widgets
  • user-avatar
    Login

    Hourly Weather Herāt

    Today, 23 August, Friday

    Time Temperature Precipitation Wind Pressure Humidity
    00:00 +24°C° 0 mm 7 mps 677 mmHg 25%
    01:00 +24°C° 0 mm 7 mps 677 mmHg 27%
    02:00 +23°C° 0 mm 6 mps 677 mmHg 28%
    03:00 +23°C° 0 mm 6 mps 677 mmHg 29%
    04:00 +22°C° 0 mm 6 mps 677 mmHg 29%
    05:00 +24°C° 0 mm 6 mps 677 mmHg 27%
    06:00 +26°C° 0 mm 5 mps 678 mmHg 25%
    07:00 +27°C° 0 mm 5 mps 678 mmHg 23%
    08:00 +29°C° 0 mm 7 mps 679 mmHg 20%
    09:00 +33°C° 0 mm 9 mps 679 mmHg 17%
    10:00 +36°C° 0 mm 11 mps 680 mmHg 14%
    11:00 +37°C° 0 mm 11 mps 679 mmHg 14%
    12:00 +37°C° 0 mm 12 mps 679 mmHg 13%
    13:00 +38°C° 0 mm 12 mps 678 mmHg 12%
    14:00 +38°C° 0 mm 13 mps 678 mmHg 12%
    15:00 +38°C° 0 mm 13 mps 678 mmHg 13%
    16:00 +38°C° 0 mm 14 mps 678 mmHg 13%
    17:00 +36°C° 0 mm 13 mps 678 mmHg 14%
    18:00 +33°C° 0 mm 12 mps 678 mmHg 16%
    19:00 +31°C° 0 mm 11 mps 677 mmHg 17%
    20:00 +29°C° 0 mm 11 mps 678 mmHg 18%
    21:00 +29°C° 0 mm 11 mps 678 mmHg 19%
    22:00 +28°C° 0 mm 11 mps 678 mmHg 20%
    23:00 +27°C° 0 mm 11 mps 678 mmHg 21%

    Tomorrow, 24 August, Saturday

    Time Temperature Precipitation Wind Pressure Humidity
    00:00 +26°C° 0 mm 10 mps 678 mmHg 21%
    01:00 +26°C° 0 mm 9 mps 677 mmHg 22%
    02:00 +24°C° 0 mm 9 mps 677 mmHg 23%
    03:00 +23°C° 0 mm 9 mps 677 mmHg 24%
    04:00 +23°C° 0 mm 8 mps 677 mmHg 25%
    05:00 +24°C° 0 mm 9 mps 678 mmHg 23%
    06:00 +26°C° 0 mm 9 mps 678 mmHg 22%
    07:00 +28°C° 0 mm 10 mps 678 mmHg 20%
    08:00 +29°C° 0 mm 9 mps 679 mmHg 18%
    09:00 +32°C° 0 mm 9 mps 679 mmHg 16%
    10:00 +33°C° 0 mm 8 mps 679 mmHg 13%
    11:00 +34°C° 0 mm 9 mps 679 mmHg 12%
    12:00 +36°C° 0 mm 10 mps 679 mmHg 11%
    13:00 +37°C° 0 mm 11 mps 678 mmHg 10%
    14:00 +36°C° 0 mm 12 mps 678 mmHg 11%
    15:00 +36°C° 0 mm 13 mps 678 mmHg 11%
    16:00 +34°C° 0 mm 14 mps 677 mmHg 11%
    17:00 +32°C° 0 mm 12 mps 677 mmHg 12%
    18:00 +29°C° 0 mm 11 mps 677 mmHg 13%
    19:00 +27°C° 0 mm 10 mps 677 mmHg 14%
    20:00 +26°C° 0 mm 9 mps 677 mmHg 15%
    21:00 +24°C° 0 mm 8 mps 677 mmHg 16%
    22:00 +23°C° 0 mm 8 mps 677 mmHg 16%
    23:00 +22°C° 0 mm 7 mps 677 mmHg 17%

    Day after tomorrow, 25 August, Sunday

    Time Temperature Precipitation Wind Pressure Humidity
    00:00 +22°C° 0 mm 6 mps 677 mmHg 19%
    01:00 +21°C° 0 mm 5 mps 676 mmHg 20%
    02:00 +20°C° 0 mm 5 mps 676 mmHg 21%
    03:00 +19°C° 0 mm 5 mps 676 mmHg 22%
    04:00 +19°C° 0 mm 4 mps 675 mmHg 24%
    05:00 +20°C° 0 mm 4 mps 676 mmHg 22%
    06:00 +22°C° 0 mm 4 mps 677 mmHg 20%
    07:00 +25°C° 0 mm 4 mps 677 mmHg 18%
    08:00 +27°C° 0 mm 5 mps 677 mmHg 15%
    09:00 +29°C° 0 mm 6 mps 678 mmHg 13%
    10:00 +33°C° 0 mm 7 mps 678 mmHg 11%
    11:00 +34°C° 0 mm 8 mps 678 mmHg 10%
    12:00 +35°C° 0 mm 8 mps 678 mmHg 9%
    13:00 +37°C° 0 mm 8 mps 677 mmHg 9%
    14:00 +37°C° 0 mm 9 mps 677 mmHg 9%
    15:00 +37°C° 0 mm 9 mps 677 mmHg 10%
    16:00 +37°C° 0 mm 10 mps 677 mmHg 10%
    17:00 +34°C° 0 mm 10 mps 677 mmHg 12%
    18:00 +32°C° 0 mm 10 mps 677 mmHg 14%
    19:00 +29°C° 0 mm 9 mps 677 mmHg 16%
    20:00 +28°C° 0 mm 9 mps 677 mmHg 17%
    21:00 +27°C° 0 mm 9 mps 677 mmHg 18%
    22:00 +26°C° 0 mm 8 mps 677 mmHg 19%
    23:00 +26°C° 0 mm 7 mps 677 mmHg 19%

    26 August, Monday

    Time Temperature Precipitation Wind Pressure Humidity
    00:00 +24°C° 0 mm 7 mps 677 mmHg 20%
    01:00 +23°C° 0 mm 6 mps 676 mmHg 20%
    02:00 +22°C° 0 mm 5 mps 676 mmHg 21%
    03:00 +22°C° 0 mm 5 mps 676 mmHg 22%
    04:00 +21°C° 0 mm 5 mps 676 mmHg 23%
    05:00 +23°C° 0 mm 4 mps 677 mmHg 21%
    06:00 +25°C° 0 mm 4 mps 677 mmHg 19%
    07:00 +26°C° 0 mm 4 mps 678 mmHg 17%
    08:00 +29°C° 0 mm 5 mps 678 mmHg 15%
    09:00 +32°C° 0 mm 6 mps 679 mmHg 13%
    10:00 +35°C° 0 mm 6 mps 679 mmHg 11%
    11:00 +36°C° 0 mm 7 mps 679 mmHg 10%
    12:00 +38°C° 0 mm 8 mps 679 mmHg 9%
    13:00 +39°C° 0 mm 10 mps 678 mmHg 8%
    14:00 +38°C° 0 mm 10 mps 678 mmHg 8%
    15:00 +38°C° 0 mm 11 mps 678 mmHg 8%
    16:00 +37°C° 0 mm 12 mps 678 mmHg 8%
    17:00 +34°C° 0 mm 11 mps 678 mmHg 9%
    18:00 +32°C° 0 mm 11 mps 678 mmHg 10%
    19:00 +29°C° 0 mm 10 mps 678 mmHg 11%
    20:00 +28°C° 0 mm 9 mps 678 mmHg 12%
    21:00 +26°C° 0 mm 7 mps 678 mmHg 12%
    22:00 +24°C° 0 mm 6 mps 678 mmHg 13%
    23:00 +23°C° 0 mm 5 mps 678 mmHg 14%

    27 August, Tuesday

    Time Temperature Precipitation Wind Pressure Humidity
    00:00 +22°C° 0 mm 4 mps 678 mmHg 15%
    01:00 +21°C° 0 mm 4 mps 677 mmHg 16%
    02:00 +20°C° 0 mm 3 mps 677 mmHg 17%
    03:00 +19°C° 0 mm 3 mps 677 mmHg 18%
    04:00 +19°C° 0 mm 3 mps 677 mmHg 18%
    05:00 +21°C° 0 mm 3 mps 678 mmHg 17%
    06:00 +23°C° 0 mm 4 mps 678 mmHg 15%
    07:00 +26°C° 0 mm 4 mps 679 mmHg 13%
    08:00 +28°C° 0 mm 6 mps 679 mmHg 11%
    09:00 +32°C° 0 mm 8 mps 680 mmHg 9%
    10:00 +34°C° 0 mm 10 mps 680 mmHg 8%
    11:00 +36°C° 0 mm 12 mps 680 mmHg 8%
    12:00 +37°C° 0 mm 13 mps 680 mmHg 8%
    13:00 +37°C° 0 mm 14 mps 679 mmHg 8%
    14:00 +37°C° 0 mm 14 mps 679 mmHg 8%
    15:00 +37°C° 0 mm 14 mps 678 mmHg 9%
    16:00 +36°C° 0 mm 14 mps 678 mmHg 9%
    17:00 +34°C° 0 mm 13 mps 678 mmHg 10%
    18:00 +32°C° 0 mm 12 mps 678 mmHg 12%
    19:00 +29°C° 0 mm 11 mps 678 mmHg 13%
    20:00 +28°C° 0 mm 10 mps 678 mmHg 14%
    21:00 +27°C° 0 mm 9 mps 678 mmHg 15%
    22:00 +26°C° 0 mm 9 mps 678 mmHg 17%
    23:00 +26°C° 0 mm 8 mps 678 mmHg 18%

    28 August, Wednesday

    Time Temperature Precipitation Wind Pressure Humidity
    00:00 +24°C° 0 mm 7 mps 678 mmHg 19%
    01:00 +23°C° 0 mm 6 mps 677 mmHg 20%
    02:00 +22°C° 0 mm 5 mps 677 mmHg 21%
    03:00 +21°C° 0 mm 4 mps 677 mmHg 23%
    04:00 +19°C° 0 mm 3 mps 676 mmHg 25%
    05:00 +21°C° 0 mm 4 mps 677 mmHg 22%
    06:00 +23°C° 0 mm 4 mps 678 mmHg 19%
    07:00 +26°C° 0 mm 4 mps 679 mmHg 16%
    08:00 +29°C° 0 mm 6 mps 679 mmHg 14%
    09:00 +32°C° 0 mm 8 mps 679 mmHg 12%
    10:00 +35°C° 0 mm 9 mps 680 mmHg 10%
    11:00 +37°C° 0 mm 10 mps 679 mmHg 10%
    12:00 +38°C° 0 mm 11 mps 679 mmHg 10%
    13:00 +39°C° 0 mm 12 mps 679 mmHg 9%
    14:00 +38°C° 0 mm 13 mps 679 mmHg 10%
    15:00 +38°C° 0 mm 13 mps 678 mmHg 11%
    16:00 +37°C° 0 mm 14 mps 678 mmHg 12%
    17:00 +34°C° 0 mm 12 mps 678 mmHg 14%
    18:00 +32°C° 0 mm 11 mps 678 mmHg 16%
    19:00 +29°C° 0 mm 10 mps 678 mmHg 18%
    20:00 +28°C° 0 mm 8 mps 678 mmHg 19%
    21:00 +26°C° 0 mm 6 mps 678 mmHg 21%
    22:00 +25°C° 0 mm 5 mps 678 mmHg 23%
    23:00 +23°C° 0 mm 4 mps 678 mmHg 23%
    Show more